Location: Beaurecueil
(43.5122°N, 5.5450°E)
Time: 16:56:51
(UTC+00:00)

SJ-6B - Pass Details

Date: 18 September 2020
Orbit: 511 x 580 km, 97.6° (Epoch: 20 October)

Event Time Altitude Azimuth Distance (km) Brightness Sun altitude
Exits shadow 19:21:25 41° 151° (SSE) 756 3.1 -18.5°
Maximum altitude 19:22:37 74° 75° (ENE) 537 2.5 -18.7°
Drops below altitude 10° 19:26:22 10° 351° (N) 1,749 5.8 -19.3°
Sets 19:28:29 0° 350° (N) 2,646 6.8 -19.6°
